TimePDT,TemperatureF,Dew PointF,Humidity,Sea Level PressureIn,VisibilityMPH,Wind Direction,Wind SpeedMPH,Gust SpeedMPH,PrecipitationIn,Events,Conditions,WindDirDegrees,DateUTC
12:53 AM,59.0,59.0,100,29.99,10.0,Calm,Calm,-,N/A,,Overcast,0,2013-08-12 07:53:00
1:53 AM,59.0,59.0,100,29.98,10.0,Calm,Calm,-,N/A,,Overcast,0,2013-08-12 08:53:00
2:53 AM,59.0,59.0,100,29.97,10.0,SW,3.5,-,N/A,,Overcast,230,2013-08-12 09:53:00
3:53 AM,59.0,59.0,100,29.96,10.0,Calm,Calm,-,N/A,,Overcast,0,2013-08-12 10:53:00
4:53 AM,59.0,59.0,100,29.97,10.0,SW,6.9,-,N/A,,Overcast,230,2013-08-12 11:53:00
5:53 AM,59.0,59.0,100,29.99,10.0,West,6.9,-,N/A,,Overcast,260,2013-08-12 12:53:00
6:06 AM,59.0,59.0,100,29.98,10.0,WSW,6.9,-,N/A,,Overcast,250,2013-08-12 13:06:00
6:53 AM,60.1,59.0,96,29.99,10.0,South,4.6,-,N/A,,Overcast,190,2013-08-12 13:53:00
7:53 AM,60.1,59.0,96,30.00,10.0,WSW,4.6,-,N/A,,Overcast,250,2013-08-12 14:53:00
8:53 AM,60.1,59.0,96,30.01,10.0,SW,3.5,-,N/A,,Overcast,220,2013-08-12 15:53:00
9:53 AM,62.1,59.0,90,30.01,10.0,SSW,3.5,-,N/A,,Mostly Cloudy,200,2013-08-12 16:53:00
10:53 AM,64.9,57.9,78,30.01,10.0,WSW,5.8,-,N/A,,Partly Cloudy,240,2013-08-12 17:53:00
11:53 AM,68.0,60.1,76,30.00,10.0,WNW,10.4,-,N/A,,Partly Cloudy,300,2013-08-12 18:53:00
12:53 PM,68.0,61.0,78,30.00,10.0,WNW,13.8,-,N/A,,Partly Cloudy,300,2013-08-12 19:53:00
1:53 PM,70.0,60.1,71,29.99,10.0,NW,13.8,-,N/A,,Partly Cloudy,310,2013-08-12 20:53:00
2:53 PM,72.0,57.0,59,29.99,10.0,North,12.7,-,N/A,,Partly Cloudy,360,2013-08-12 21:53:00
3:53 PM,71.1,57.0,61,29.98,10.0,NW,10.4,-,N/A,,Partly Cloudy,320,2013-08-12 22:53:00
4:53 PM,71.1,55.9,59,29.97,10.0,WNW,11.5,-,N/A,,Partly Cloudy,300,2013-08-12 23:53:00
5:53 PM,68.0,57.9,70,29.96,10.0,WNW,13.8,-,N/A,,Partly Cloudy,290,2013-08-13 00:53:00
6:53 PM,64.0,59.0,84,29.96,10.0,WNW,12.7,-,N/A,,Partly Cloudy,300,2013-08-13 01:53:00
7:53 PM,60.1,59.0,96,29.98,10.0,WNW,13.8,-,N/A,,Partly Cloudy,290,2013-08-13 02:53:00
8:53 PM,59.0,59.0,100,29.99,10.0,WNW,8.1,-,N/A,,Partly Cloudy,300,2013-08-13 03:53:00
10:53 PM,59.0,59.0,100,30.00,10.0,WNW,8.1,-,N/A,,Mostly Cloudy,290,2013-08-13 05:53:00
11:53 PM,59.0,59.0,100,30.00,10.0,Calm,Calm,-,N/A,,Overcast,0,2013-08-13 06:53:00